Terminal Aerodrome Forecast
Issued by NWS Billings, MT

Home | Current Version | Previous Version | Text Only | Print | Product List | Glossary On
Versions: 1 2 3 4 5 6 7 8 9 10 11 12 13 14 15 16 17 18 19 20 21 22 23 24
000
FTUS45 KBYZ 311722
TAFBIL
TAF
KBIL 311722Z 3118/0118 25008KT P6SM FEW090 SCT250
     FM312100 35011KT P6SM SCT070 SCT250
     FM010300 VRB05KT P6SM FEW100 SCT250=

USA.gov is the U.S. government's official web portal to all federal, state and local government web resources and services.